When you browse on this site, cookies collect data to enhance your experience and personalize the content and advertising you see.
Visit our Privacy Policy to learn more. By continuing to use the site, you agree to this use of cookies and data.
  • In Schweiz
  • Länderverzeichnis
  • Für 7 Tage
  • Wassertemperatur
  • Satellitenkarten
  • Wetterkarte
  • Widgets
  • user-avatar
    Anmelden

    Stündliche Wetter Satif

    Heute, 22 Mai, Mittwoch

    Zeit Temperatur Niederschläge Wind Luftdruck Luftfeuchtigkeit
    00:00 +10°C° 0.7 mm 2 m/S 671 mmHg 91%
    01:00 +10°C° 0.3 mm 2 m/S 671 mmHg 91%
    02:00 +10°C° 0.3 mm 2 m/S 671 mmHg 91%
    03:00 +10°C° 0.3 mm 1 m/S 670 mmHg 91%
    04:00 +11°C° 0.2 mm 1 m/S 671 mmHg 88%
    05:00 +12°C° 0.2 mm 1 m/S 671 mmHg 84%
    06:00 +12°C° 0.2 mm 1 m/S 671 mmHg 81%
    07:00 +14°C° 0.1 mm 1 m/S 672 mmHg 73%
    08:00 +16°C° 0.1 mm 1 m/S 673 mmHg 66%
    09:00 +19°C° 0.1 mm 1 m/S 673 mmHg 58%
    10:00 +18°C° 0.3 mm 2 m/S 673 mmHg 54%
    11:00 +19°C° 0.3 mm 2 m/S 674 mmHg 49%
    12:00 +20°C° 0.3 mm 2 m/S 674 mmHg 45%
    13:00 +20°C° 0.9 mm 3 m/S 674 mmHg 47%
    14:00 +20°C° 0.9 mm 3 m/S 673 mmHg 48%
    15:00 +19°C° 0.9 mm 3 m/S 673 mmHg 50%
    16:00 +19°C° 0.6 mm 3 m/S 673 mmHg 54%
    17:00 +18°C° 0.6 mm 3 m/S 673 mmHg 58%
    18:00 +17°C° 0.6 mm 3 m/S 673 mmHg 61%
    19:00 +16°C° 0.1 mm 2 m/S 673 mmHg 67%
    20:00 +15°C° 0.1 mm 2 m/S 673 mmHg 73%
    21:00 +14°C° 0.1 mm 1 m/S 673 mmHg 79%
    22:00 +13°C° 0 mm 1 m/S 673 mmHg 80%
    23:00 +13°C° 0 mm 1 m/S 673 mmHg 82%

    Morgen, 23 Mai, Donnerstag

    Zeit Temperatur Niederschläge Wind Luftdruck Luftfeuchtigkeit
    00:00 +12°C° 0 mm 1 m/S 673 mmHg 84%
    01:00 +12°C° 0 mm 1 m/S 673 mmHg 84%
    02:00 +12°C° 0 mm 1 m/S 672 mmHg 85%
    03:00 +11°C° 0 mm 1 m/S 672 mmHg 85%
    04:00 +12°C° 0 mm 1 m/S 673 mmHg 80%
    05:00 +12°C° 0 mm 0 m/S 673 mmHg 74%
    06:00 +13°C° 0 mm 0 m/S 673 mmHg 69%
    07:00 +14°C° 0 mm 0 m/S 674 mmHg 58%
    08:00 +18°C° 0 mm 1 m/S 674 mmHg 48%
    09:00 +20°C° 0 mm 1 m/S 675 mmHg 37%
    10:00 +21°C° 0 mm 1 m/S 675 mmHg 33%
    11:00 +22°C° 0 mm 1 m/S 675 mmHg 30%
    12:00 +23°C° 0 mm 2 m/S 675 mmHg 26%
    13:00 +23°C° 0 mm 2 m/S 675 mmHg 26%
    14:00 +24°C° 0 mm 2 m/S 675 mmHg 26%
    15:00 +24°C° 0 mm 3 m/S 674 mmHg 27%
    16:00 +22°C° 0 mm 3 m/S 674 mmHg 32%
    17:00 +21°C° 0 mm 3 m/S 674 mmHg 37%
    18:00 +20°C° 0 mm 2 m/S 673 mmHg 42%
    19:00 +19°C° 0 mm 2 m/S 673 mmHg 47%
    20:00 +18°C° 0 mm 2 m/S 673 mmHg 53%
    21:00 +16°C° 0 mm 2 m/S 673 mmHg 58%
    22:00 +16°C° 0 mm 2 m/S 673 mmHg 59%
    23:00 +16°C° 0 mm 2 m/S 672 mmHg 60%

    übermorgen, 24 Mai, Freitag

    Zeit Temperatur Niederschläge Wind Luftdruck Luftfeuchtigkeit
    00:00 +15°C° 0 mm 1 m/S 672 mmHg 60%
    01:00 +15°C° 0 mm 1 m/S 671 mmHg 60%
    02:00 +15°C° 0 mm 1 m/S 671 mmHg 60%
    03:00 +15°C° 0 mm 1 m/S 671 mmHg 60%
    04:00 +16°C° 0 mm 2 m/S 671 mmHg 58%
    05:00 +17°C° 0 mm 3 m/S 671 mmHg 56%
    06:00 +18°C° 0 mm 4 m/S 671 mmHg 53%
    07:00 +20°C° 0 mm 5 m/S 672 mmHg 49%
    08:00 +22°C° 0 mm 7 m/S 672 mmHg 46%
    09:00 +23°C° 0 mm 8 m/S 672 mmHg 42%
    10:00 +23°C° 0 mm 8 m/S 672 mmHg 42%
    11:00 +24°C° 0 mm 9 m/S 672 mmHg 42%
    12:00 +24°C° 0 mm 9 m/S 672 mmHg 43%
    13:00 +24°C° 0 mm 9 m/S 671 mmHg 43%
    14:00 +24°C° 0 mm 8 m/S 671 mmHg 43%
    15:00 +24°C° 0 mm 8 m/S 670 mmHg 43%
    16:00 +22°C° 0.9 mm 8 m/S 670 mmHg 51%
    17:00 +21°C° 0.9 mm 7 m/S 669 mmHg 58%
    18:00 +18°C° 0.9 mm 7 m/S 669 mmHg 65%
    19:00 +19°C° 1.1 mm 6 m/S 669 mmHg 69%
    20:00 +18°C° 1.1 mm 4 m/S 669 mmHg 73%
    21:00 +17°C° 1.1 mm 2 m/S 669 mmHg 77%
    22:00 +17°C° 0.1 mm 2 m/S 669 mmHg 77%
    23:00 +17°C° 0.1 mm 2 m/S 669 mmHg 76%

    25 Mai, Samstag

    Zeit Temperatur Niederschläge Wind Luftdruck Luftfeuchtigkeit
    00:00 +18°C° 0.1 mm 2 m/S 668 mmHg 76%
    01:00 +17°C° 2 mm 2 m/S 668 mmHg 78%
    02:00 +17°C° 2 mm 2 m/S 668 mmHg 80%
    03:00 +17°C° 2 mm 2 m/S 667 mmHg 82%
    04:00 +17°C° 2.8 mm 2 m/S 668 mmHg 81%
    05:00 +17°C° 2.8 mm 3 m/S 668 mmHg 80%
    06:00 +17°C° 2.8 mm 3 m/S 668 mmHg 79%
    07:00 +18°C° 1.1 mm 3 m/S 668 mmHg 72%
    08:00 +19°C° 1.1 mm 3 m/S 669 mmHg 65%
    09:00 +21°C° 1.1 mm 4 m/S 669 mmHg 58%
    10:00 +20°C° 2.4 mm 4 m/S 669 mmHg 60%
    11:00 +20°C° 2.4 mm 5 m/S 669 mmHg 62%
    12:00 +20°C° 2.4 mm 5 m/S 669 mmHg 64%
    13:00 +20°C° 3.4 mm 4 m/S 669 mmHg 67%
    14:00 +19°C° 3.4 mm 3 m/S 669 mmHg 70%
    15:00 +18°C° 3.4 mm 2 m/S 668 mmHg 72%
    16:00 +17°C° 6 mm 2 m/S 668 mmHg 78%
    17:00 +16°C° 6 mm 3 m/S 668 mmHg 83%
    18:00 +16°C° 6 mm 3 m/S 668 mmHg 89%
    19:00 +15°C° 0.8 mm 2 m/S 668 mmHg 88%
    20:00 +15°C° 0.8 mm 2 m/S 668 mmHg 87%
    21:00 +15°C° 0.8 mm 1 m/S 669 mmHg 86%
    22:00 +15°C° 0 mm 2 m/S 669 mmHg 88%
    23:00 +14°C° 0 mm 2 m/S 668 mmHg 89%

    26 Mai, Sonntag

    Zeit Temperatur Niederschläge Wind Luftdruck Luftfeuchtigkeit
    00:00 +14°C° 0 mm 2 m/S 668 mmHg 91%
    01:00 +14°C° 0.1 mm 2 m/S 668 mmHg 92%
    02:00 +14°C° 0.1 mm 2 m/S 667 mmHg 92%
    03:00 +13°C° 0.1 mm 2 m/S 667 mmHg 92%
    04:00 +13°C° 0 mm 2 m/S 667 mmHg 92%
    05:00 +12°C° 0 mm 3 m/S 667 mmHg 91%
    06:00 +12°C° 0 mm 3 m/S 667 mmHg 90%
    07:00 +12°C° 0.2 mm 3 m/S 667 mmHg 90%
    08:00 +13°C° 0.2 mm 4 m/S 667 mmHg 89%
    09:00 +13°C° 0.2 mm 4 m/S 668 mmHg 88%
    10:00 +13°C° 1.1 mm 4 m/S 668 mmHg 87%
    11:00 +13°C° 1.1 mm 3 m/S 667 mmHg 86%
    12:00 +13°C° 1.1 mm 3 m/S 667 mmHg 85%
    13:00 +14°C° 0.2 mm 3 m/S 667 mmHg 81%
    14:00 +14°C° 0.2 mm 3 m/S 667 mmHg 77%
    15:00 +15°C° 0.2 mm 4 m/S 667 mmHg 74%
    16:00 +15°C° 0.1 mm 4 m/S 667 mmHg 76%
    17:00 +14°C° 0.1 mm 4 m/S 667 mmHg 78%
    18:00 +14°C° 0.1 mm 4 m/S 667 mmHg 80%
    19:00 +13°C° 0.1 mm 3 m/S 668 mmHg 83%
    20:00 +13°C° 0.1 mm 3 m/S 668 mmHg 86%
    21:00 +12°C° 0.1 mm 3 m/S 668 mmHg 89%
    22:00 +12°C° 0 mm 3 m/S 668 mmHg 90%
    23:00 +12°C° 0 mm 3 m/S 668 mmHg 90%

    27 Mai, Montag

    Zeit Temperatur Niederschläge Wind Luftdruck Luftfeuchtigkeit
    00:00 +12°C° 0 mm 3 m/S 667 mmHg 91%
    01:00 +11°C° 0 mm 3 m/S 667 mmHg 91%
    02:00 +11°C° 0 mm 3 m/S 667 mmHg 90%
    03:00 +11°C° 0 mm 3 m/S 667 mmHg 90%
    04:00 +10°C° 0.1 mm 3 m/S 667 mmHg 90%
    05:00 +10°C° 0.1 mm 3 m/S 667 mmHg 89%
    06:00 +10°C° 0.1 mm 2 m/S 667 mmHg 89%
    07:00 +12°C° 0 mm 2 m/S 667 mmHg 82%
    08:00 +13°C° 0 mm 2 m/S 667 mmHg 75%
    09:00 +14°C° 0 mm 2 m/S 668 mmHg 68%
    10:00 +14°C° 0.2 mm 3 m/S 668 mmHg 66%
    11:00 +15°C° 0.2 mm 4 m/S 668 mmHg 63%
    12:00 +16°C° 0.2 mm 5 m/S 668 mmHg 61%
    13:00 +15°C° 0.2 mm 5 m/S 667 mmHg 64%
    14:00 +15°C° 0.2 mm 5 m/S 667 mmHg 66%
    15:00 +14°C° 0.2 mm 6 m/S 667 mmHg 69%
    16:00 +14°C° 0 mm 5 m/S 667 mmHg 71%
    17:00 +13°C° 0 mm 5 m/S 667 mmHg 74%
    18:00 +13°C° 0 mm 5 m/S 667 mmHg 76%
    19:00 +12°C° 0.1 mm 5 m/S 668 mmHg 78%
    20:00 +12°C° 0.1 mm 5 m/S 668 mmHg 81%
    21:00 +12°C° 0.1 mm 4 m/S 669 mmHg 83%
    22:00 +12°C° 0.1 mm 4 m/S 669 mmHg 85%
    23:00 +11°C° 0.1 mm 4 m/S 669 mmHg 87%
    Mehr zeigen